Terug naar catalogus

STARLINK-35993

ActiefCommunicatieVLEO
NORAD 66607·PAYLOAD·🇺🇸 United States

Gelanceerd Nov 22, 2025 vanaf Cape Canaveral Space Force Station

Loading…

Volgende Passages (komende 24 uur)

TLE

VersSource: CelesTrak SupGP

Epoch: Sep 15, 2026, 04:00 UTC

1 66607C 25270V   26258.16715278 -.00030804  00000+0 -11154-2 0  2589
2 66607  43.0015  66.2198 0001514 269.2751  57.0014 15.27602721    16

Volg STARLINK-35993 in realtime met AllMySat

Download on the App Store